Location: Barcelona
(41.3830°N, 2.1830°E)
Time: 12:57:59
(UTC+02:00)

ISS - Pass Details

Date: 29 May 2020
Orbit: 417 x 419 km, 51.6° (Epoch: 31 May)

Event Time Altitude Azimuth Distance (km) Brightness Sun altitude
Rises 00:45:49 0° 298° (WNW) 2,366 0.7 -25.3°
Reaches altitude 10° 00:48:04 10° 287° (WNW) 1,499 -0.6 -25.4°
Enters shadow 00:48:34 13° 283° (WNW) 1,320 -0.9 -25.4°
